SAS42 ENAT-ENTC

Flight info

Callsign SAS42
Flight time 0h 27m
Altitude 16000
Route NATED DCT KIIKA
Aircraft A20N/M-SDE2E3FGHIRWXY/LB1

Departure

Time 2026-05-04 19:43
Airport Alta Airport (ENAT)

Arrival

Time 2026-05-04 20:10
Airport Tromsø Airport (ENTC)
Time Latitude Longitude Altitude Speed Heading
2026-05-04 19:31 69.97821 23.34807 38 ft 0 kts 208°
2026-05-04 19:37 69.97840 23.34840 36 ft 4 kts 216°
2026-05-04 19:37 69.97860 23.34891 34 ft 4 kts 230°
2026-05-04 19:37 69.97873 23.34955 34 ft 4 kts 265°
2026-05-04 19:37 69.97871 23.35001 34 ft 1 kts 301°
2026-05-04 19:38 69.97869 23.35008 34 ft 0 kts 301°
2026-05-04 19:39 69.97871 23.35000 38 ft 4 kts 301°
2026-05-04 19:40 69.97908 23.34817 37 ft 17 kts 301°
2026-05-04 19:40 69.97991 23.34430 36 ft 26 kts 307°
2026-05-04 19:40 69.98121 23.34070 38 ft 25 kts 317°
2026-05-04 19:40 69.98137 23.34029 38 ft 0 kts 317°
2026-05-04 19:42 69.98137 23.34027 38 ft 2 kts 317°
2026-05-04 19:42 69.98187 23.33900 38 ft 14 kts 327°
2026-05-04 19:42 69.98257 23.33988 39 ft 12 kts 78°
2026-05-04 19:42 69.98243 23.34102 37 ft 4 kts 121°
2026-05-04 19:43 69.98094 23.34831 36 ft 79 kts 121°
2026-05-04 19:43 69.97678 23.36809 87 ft 142 kts 116°
2026-05-04 19:43 69.97146 23.39276 783 ft 144 kts 119°
2026-05-04 19:43 69.96607 23.41788 1529 ft 151 kts 122°
2026-05-04 19:44 69.95815 23.44090 1976 ft 174 kts 149°
2026-05-04 19:44 69.94562 23.44615 2336 ft 200 kts 192°
2026-05-04 19:44 69.93422 23.42101 2764 ft 219 kts 239°
2026-05-04 19:44 69.93019 23.37753 3338 ft 231 kts 262°
2026-05-04 19:45 69.92854 23.32954 3814 ft 248 kts 263°
2026-05-04 19:45 69.92635 23.27772 4335 ft 264 kts 260°
2026-05-04 19:45 69.92345 23.22445 5186 ft 267 kts 258°
2026-05-04 19:45 69.92016 23.17122 6134 ft 268 kts 257°
2026-05-04 19:46 69.91662 23.11798 7035 ft 269 kts 256°
2026-05-04 19:46 69.91290 23.06418 7921 ft 273 kts 257°
2026-05-04 19:46 69.90906 23.00974 8928 ft 276 kts 257°
2026-05-04 19:46 69.90512 22.95470 9860 ft 281 kts 256°
2026-05-04 19:47 69.90093 22.89684 10331 ft 304 kts 257°
2026-05-04 19:47 69.89638 22.83440 10755 ft 327 kts 257°
2026-05-04 19:47 69.89155 22.76853 11484 ft 338 kts 257°
2026-05-04 19:47 69.88658 22.70108 12386 ft 344 kts 256°
2026-05-04 19:48 69.88151 22.63252 13380 ft 349 kts 256°
2026-05-04 19:48 69.87633 22.56308 14242 ft 354 kts 256°
2026-05-04 19:48 69.87107 22.49292 15033 ft 357 kts 256°
2026-05-04 19:48 69.86582 22.42339 15478 ft 358 kts 256°
2026-05-04 19:49 69.86041 22.35195 15567 ft 358 kts 256°
2026-05-04 19:49 69.85508 22.28218 15570 ft 359 kts 256°
2026-05-04 19:49 69.84965 22.21148 15567 ft 360 kts 256°
2026-05-04 19:49 69.84418 22.14060 15562 ft 360 kts 256°
2026-05-04 19:50 69.83868 22.06985 15563 ft 360 kts 256°
2026-05-04 19:50 69.83316 21.99922 15560 ft 360 kts 256°
2026-05-04 19:50 69.82759 21.92830 15559 ft 360 kts 256°
2026-05-04 19:50 69.82201 21.85764 15561 ft 360 kts 256°
2026-05-04 19:51 69.81640 21.78700 15559 ft 360 kts 255°
2026-05-04 19:51 69.81077 21.71651 15560 ft 359 kts 255°
2026-05-04 19:51 69.80510 21.64597 15551 ft 359 kts 255°
2026-05-04 19:51 69.79925 21.57656 15552 ft 359 kts 252°
2026-05-04 19:52 69.79091 21.50870 15558 ft 358 kts 247°
2026-05-04 19:52 69.78164 21.44193 15552 ft 358 kts 246°
2026-05-04 19:52 69.77201 21.37541 15556 ft 358 kts 246°
2026-05-04 19:52 69.76225 21.30922 15552 ft 358 kts 245°
2026-05-04 19:53 69.75243 21.24330 15555 ft 358 kts 245°
2026-05-04 19:53 69.74253 21.17734 15560 ft 358 kts 245°
2026-05-04 19:53 69.73257 21.11127 15552 ft 359 kts 245°
2026-05-04 19:53 69.72252 21.04494 15554 ft 361 kts 245°
2026-05-04 19:54 69.71244 20.97857 15552 ft 362 kts 245°
2026-05-04 19:54 69.70232 20.91225 15555 ft 362 kts 245°
2026-05-04 19:54 69.69218 20.84598 15554 ft 362 kts 245°
2026-05-04 19:54 69.68200 20.77974 15550 ft 362 kts 245°
2026-05-04 19:55 69.67179 20.71350 15554 ft 362 kts 245°
2026-05-04 19:55 69.66157 20.64745 15553 ft 361 kts 244°
2026-05-04 19:55 69.65145 20.58232 15532 ft 361 kts 244°
2026-05-04 19:55 69.64121 20.51656 15533 ft 361 kts 244°
2026-05-04 19:56 69.63095 20.45090 15534 ft 360 kts 244°
2026-05-04 19:56 69.62065 20.38524 15534 ft 360 kts 244°
2026-05-04 19:56 69.61034 20.31969 15167 ft 361 kts 244°
2026-05-04 19:56 69.59989 20.25354 14287 ft 366 kts 244°
2026-05-04 19:57 69.58934 20.18694 13554 ft 367 kts 244°
2026-05-04 19:57 69.57878 20.12052 12863 ft 365 kts 244°
2026-05-04 19:57 69.56829 20.05485 12219 ft 359 kts 244°
2026-05-04 19:57 69.55797 19.99033 11634 ft 355 kts 244°
2026-05-04 19:58 69.54774 19.92660 11160 ft 350 kts 244°
2026-05-04 19:58 69.53760 19.86359 10838 ft 347 kts 244°
2026-05-04 19:58 69.52763 19.80175 10544 ft 336 kts 244°
2026-05-04 19:58 69.51808 19.74261 10433 ft 319 kts 244°
2026-05-04 19:59 69.50897 19.68645 10360 ft 304 kts 244°
2026-05-04 19:59 69.50028 19.63307 10256 ft 290 kts 244°
2026-05-04 19:59 69.49199 19.58237 10023 ft 283 kts 243°
2026-05-04 19:59 69.48361 19.53130 9576 ft 285 kts 243°
2026-05-04 20:00 69.47522 19.48032 9145 ft 283 kts 243°
2026-05-04 20:00 69.46689 19.42969 8759 ft 280 kts 243°
2026-05-04 20:00 69.45866 19.37985 8473 ft 274 kts 244°
2026-05-04 20:00 69.45069 19.33165 8321 ft 264 kts 244°
2026-05-04 20:01 69.44306 19.28562 8170 ft 250 kts 244°
2026-05-04 20:01 69.43593 19.24268 7989 ft 231 kts 243°
2026-05-04 20:01 69.42916 19.20205 7530 ft 226 kts 244°
2026-05-04 20:01 69.42248 19.16210 7143 ft 221 kts 243°
2026-05-04 20:02 69.41587 19.12261 6958 ft 221 kts 243°
2026-05-04 20:02 69.40924 19.08316 6685 ft 220 kts 243°
2026-05-04 20:02 69.40312 19.04329 6411 ft 220 kts 252°
2026-05-04 20:02 69.40140 19.00071 6219 ft 220 kts 274°
2026-05-04 20:03 69.40388 18.95799 5953 ft 219 kts 282°
2026-05-04 20:03 69.40731 18.91581 5668 ft 219 kts 283°
2026-05-04 20:03 69.41083 18.87389 5408 ft 218 kts 283°
2026-05-04 20:03 69.41458 18.83235 5149 ft 217 kts 289°
2026-05-04 20:04 69.42204 18.79426 4992 ft 222 kts 313°
2026-05-04 20:04 69.43410 18.77071 4970 ft 203 kts 341°
2026-05-04 20:04 69.44773 18.76503 4986 ft 198 kts
2026-05-04 20:04 69.46114 18.77101 4990 ft 198 kts 13°
2026-05-04 20:05 69.47451 18.77993 4995 ft 194 kts 16°
2026-05-04 20:05 69.48690 18.78914 4966 ft 174 kts 14°
2026-05-04 20:05 69.49807 18.79659 4949 ft 158 kts 14°
2026-05-04 20:05 69.50883 18.80369 4721 ft 159 kts 14°
2026-05-04 20:06 69.51964 18.81081 4389 ft 159 kts 14°
2026-05-04 20:06 69.53046 18.81791 4039 ft 159 kts 14°
2026-05-04 20:06 69.53757 18.82257 3834 ft 158 kts 15°
2026-05-04 20:06 69.54804 18.82945 3531 ft 155 kts 14°
2026-05-04 20:07 69.55873 18.83648 3228 ft 155 kts 14°
2026-05-04 20:07 69.56914 18.84333 2975 ft 151 kts 14°
2026-05-04 20:07 69.57918 18.84994 2656 ft 144 kts 15°
2026-05-04 20:07 69.58871 18.85623 2401 ft 139 kts 14°
2026-05-04 20:08 69.59813 18.86245 2143 ft 139 kts 14°
2026-05-04 20:08 69.60750 18.86874 1869 ft 138 kts 14°
2026-05-04 20:08 69.61685 18.87493 1609 ft 137 kts 14°
2026-05-04 20:08 69.62615 18.88045 1367 ft 136 kts 12°
2026-05-04 20:09 69.63535 18.88604 1146 ft 135 kts 15°
2026-05-04 20:09 69.64439 18.89232 875 ft 132 kts 15°
2026-05-04 20:09 69.65328 18.89885 627 ft 131 kts 15°
2026-05-04 20:09 69.66211 18.90478 376 ft 130 kts 15°
2026-05-04 20:10 69.67095 18.91051 124 ft 130 kts 16°
2026-05-04 20:10 69.67930 18.91617 43 ft 114 kts 12°
2026-05-04 20:10 69.68580 18.92051 28 ft 71 kts 13°
2026-05-04 20:10 69.68770 18.91955 23 ft 20 kts 279°
2026-05-04 20:11 69.68721 18.91682 25 ft 18 kts 194°
2026-05-04 20:11 69.68596 18.91598 30 ft 22 kts 193°
2026-05-04 20:11 69.68413 18.91502 29 ft 31 kts 181°
2026-05-04 20:11 69.68237 18.91437 33 ft 20 kts 194°
2026-05-04 20:12 69.68144 18.91375 38 ft 14 kts 192°
2026-05-04 20:12 69.68019 18.91291 38 ft 20 kts 194°
2026-05-04 20:12 69.67966 18.91086 38 ft 7 kts 281°
2026-05-04 20:12 69.67977 18.90959 37 ft 5 kts 284°
2026-05-04 20:13 69.67979 18.90935 37 ft 0 kts 283°
2026-05-04 20:13 69.67979 18.90932 37 ft 0 kts 283°
2026-05-04 20:16 69.67979 18.90933 37 ft 0 kts 283°
2026-05-04 20:22 69.67979 18.90934 37 ft 0 kts 283°